Regional Weather Roundup
Issued by NWS Goodland, KS

Home | Current Version | Previous Version | Text Only | Print | Product List | Glossary On
Versions: 1 2 3 4 5 6 7 8 9 10 11 12 13 14 15 16 17 18 19 20 21 22 23 24 25 26 27 28 29 30 31 32 33 34 35 36 37 38 39 40 41 42 43 44 45 46 47 48 49 50
000
ASUS43 KGLD 041608
RWRGLD

GOODLAND FORECAST AREA HOURLY WEATHER ROUNDUP
NATIONAL WEATHER SERVICE GOODLAND KS
1000 AM MDT FRI SEP 04 2015

...OFFICIAL OBSERVATIONS...

CITY           SKY/WX    TMP DP  RH WIND       PRES   REMARKS
GOODLAND KS    SUNNY     83  53  35 NW6       29.94R
HILL CITY KS   SUNNY     86  60  41 S13G20    29.87R
IMPERIAL NEB   MOSUNNY   78  58  49 W7        29.90R
MCCOOK NEB     MOSUNNY   81  62  52 W12       29.86R
AKRON CO       PTSUNNY   77  50  38 SW10      30.00R
BURLINGTON CO  MOSUNNY   81  49  32 W3        29.99R
LIMON CO       MOSUNNY   79  49  34 S9        30.06S
$$

...UNOFFICIAL OBSERVATIONS...

CITY           SKY/WX    TMP DP  RH WIND       PRES   REMARKS
COLBY KS       SUNNY     82  61  47 W5        29.92R
GOVE KS          N/A     82  32  16 MISG        N/A
LENORA KS        N/A     81  32  17 MISG        N/A
NORTON KS      SUNNY     82  54  36 S10G20    29.85S
SHARON SPRINGS   N/A     82  58  43 N5          N/A
TRENTON NEB      N/A     78  32  18 NW8         N/A
KIT CARSON CO    N/A     82  51  33 MISG        N/A
YUMA CO          N/A     78  52  40 W7          N/A
$$



USA.gov is the U.S. government's official web portal to all federal, state and local government web resources and services.